カタログに戻る

NOAA 16 DEB

運用中SSO
NORAD 41069·DEBRIS·🇺🇸 United States

打ち上げ Sep 21, 2000 から Vandenberg Space Force Base

Loading…

次のパス (今後24時間)

TLE

最新Source: Space-Track

元期: Sep 14, 2026, 14:17 UTC

1 41069U 00055AC  26257.59573080  .00001224  00000-0  35278-3 0  9996
2 41069  98.6088  11.3491 0106311 269.8006  89.1001 14.43374995565524

AllMySatでNOAA 16 DEBをリアルタイム追跡

Download on the App Store